Location: Unspecified
(0.0000°N, 0.0000°E)
Time: 08:36:00
(UTC+00:00)

Tiros 1 despin weight - Pass Details

Date: 08 October 2023
Orbit: 583 x 627 km, 48.2° (Epoch: 05 December)

Event Time Altitude Azimuth Distance (km) Brightness Sun altitude
Rises 12:56:41 0° 213° (SSW) 2,904 ? 71.8°
Reaches altitude 10° 12:59:02 10° 209° (SSW) 1,999 ? 71.2°
Maximum altitude 13:03:35 61° 129° (SE) 714 ? 70.1°
Drops below altitude 10° 13:08:07 10° 49° (NE) 1,994 ? 69.1°
Sets 13:10:26 0° 45° (NE) 2,896 ? 68.5°
